Weather History for Thermal, CA

Change the Weather History Date:

Monday, November 19, 2012

  Actual Average Record
Temperature  
Mean Temperature 63 °F 59 °F  
Max Temperature 79 °F 77 °F 91 °F (1989)
Min Temperature 46 °F 41 °F 28 °F (2000)
Degree Days  
Heating Degree Days 2 6  
Month to date heating degree days 70 66  
Since 1 July heating degree days 70 77  
Cooling Degree Days 0 0  
Month to date cooling degree days 43 33  
Year to date cooling degree days 4272 3686  
Growing Degree Days 13 (Base 50)    
Moisture  
Dew Point 46 °F    
Average Humidity 57    
Maximum Humidity 86    
Minimum Humidity 28    
Precipitation  
Precipitation 0.00 in 0.00 in 0.11 in (1967)
Month to date precipitation T 0.12  
Year to date precipitation 2.40 2.74  
Since 1 July precipitation 2.04 0.92  
Snow  
Snow 0.00 in - - ()
Month to date snowfall 0.0  
Year to date snowfall 0.0  
Since 1 July snowfall 0.0  
Snow Depth 0.00 in    
Sea Level Pressure  
Sea Level Pressure 30.13 in    
Wind  
Wind Speed 4 mph (NNE)    
Max Wind Speed 10 mph    
Max Gust Speed 13 mph    
Visibility 10 miles    
Events      
T = Trace of Precipitation, MM = Missing Value Source: NWS Daily Summary

Daily Weather History Graph

Daily Weather History Graph

Search for Another Location

Airport:

Trip Planner

Search our weather history database for the weather conditions in past years. The results will help you decide how hot, cold, wet, or windy it might be!

Date:

Astronomy

Nov. 19, 2012 Rise Set
Actual Time 6:20 AM PST 4:39 PM PST
Civil Twilight 5:53 AM PST 5:06 PM PST
Nautical Twilight 5:23 AM PST 5:36 PM PST
Astronomical Twilight 4:54 AM PST 6:06 PM PST
Moon 11:32 AM PST (11/19) 11:03 PM PST (11/19)
Length of Visible Light 11h 12m
Length of Day
10h 18m
Waxing Crescent, 42% of the Moon is Illuminated
Nov 19
Waxing Crescent
Nov 20
First Quarter
Nov 28
Full
Dec 6
Last Quarter
Dec 13
New

Hourly Weather History & Observations

Time (PST) Temp. Dew Point Humidity Pressure Visibility Wind Dir Wind Speed Gust Speed Precip Events Conditions
12:52 AM 63.0 °F 50.0 °F 63% 30.09 in 10.0 mi NNW 6.9 mph - N/A   Clear
1:52 AM 62.1 °F 50.0 °F 65% 30.09 in 10.0 mi NW 3.5 mph - N/A   Clear
2:52 AM 53.1 °F 46.9 °F 80% 30.09 in 10.0 mi Calm Calm - N/A   Clear
3:52 AM 57.0 °F 48.0 °F 72% 30.09 in 10.0 mi North 4.6 mph - N/A   Clear
4:52 AM 48.9 °F 44.1 °F 83% 30.10 in 10.0 mi Calm Calm - N/A   Clear
5:52 AM 48.0 °F 44.1 °F 86% 30.12 in 10.0 mi North 3.5 mph - N/A   Clear
6:52 AM 50.0 °F 43.0 °F 77% 30.15 in 10.0 mi North 3.5 mph - N/A   Clear
7:52 AM 57.9 °F 48.0 °F 70% 30.17 in 10.0 mi Calm Calm - N/A   Clear
8:52 AM 66.0 °F 50.0 °F 56% 30.18 in 10.0 mi Calm Calm - N/A   Clear
9:52 AM 73.0 °F 46.0 °F 38% 30.19 in 10.0 mi Variable 5.8 mph - N/A   Clear
10:52 AM 73.9 °F 44.1 °F 34% 30.17 in 10.0 mi Variable 4.6 mph - N/A   Clear
11:52 AM 77.0 °F 44.1 °F 31% 30.14 in 10.0 mi Variable 4.6 mph - N/A   Clear
12:52 PM 78.1 °F 43.0 °F 29% 30.12 in 10.0 mi Variable 4.6 mph - N/A   Clear
1:52 PM 78.1 °F 44.1 °F 30% 30.10 in 10.0 mi SE 6.9 mph - N/A   Clear
2:52 PM 77.0 °F 45.0 °F 32% 30.09 in 10.0 mi SSE 9.2 mph - N/A   Clear
3:52 PM 73.9 °F 45.0 °F 35% 30.10 in 10.0 mi SE 5.8 mph - N/A   Clear
4:52 PM 66.9 °F 46.9 °F 49% 30.10 in 10.0 mi SSE 4.6 mph - N/A   Clear
5:52 PM 60.1 °F 46.0 °F 60% 30.12 in 10.0 mi Calm Calm - N/A   Clear
6:52 PM 57.9 °F 46.0 °F 65% 30.13 in 10.0 mi NNE 3.5 mph - N/A   Clear
7:52 PM 55.9 °F 46.0 °F 69% 30.14 in 10.0 mi NNW 3.5 mph - N/A   Clear
8:52 PM 53.1 °F 44.1 °F 71% 30.14 in 10.0 mi Calm Calm - N/A   Clear
9:52 PM 54.0 °F 44.1 °F 69% 30.14 in 10.0 mi North 5.8 mph - N/A   Clear
10:52 PM 51.1 °F 44.1 °F 77% 30.13 in 10.0 mi Calm Calm - N/A   Clear